Location: Cedar Brake
(32.2526°N, 97.8459°W)
Time: 17:01:13
(UTC+00:00)

Cosmos 2263 Rocket - Pass Details

Date: 22 April 2026
Orbit: 824 x 846 km, 71.0° (Epoch: 9 May)

Event Time Altitude Azimuth Distance (km) Brightness Sun altitude
Rises 10:47:53 0° 168° (SSE) 3,383 5.2 -14.0°
Reaches altitude 10° 10:50:43 10° 155° (SSE) 2,450 4.6 -13.5°
Maximum altitude 10:55:12 25° 102° (ESE) 1,640 4.4 -12.6°
Drops below altitude 10° 10:59:40 10° 49° (NE) 2,450 5.9 -11.7°
Sets 11:02:29 0° 36° (NE) 3,384 6.4 -11.2°
